Location: Bay Harbour
(38.2612°N, 75.2555°W)
Time: 02:29:58
(UTC+00:00)

Cosmos 1825 - Pass Details

Date: 29 October 2020
Orbit: 501 x 508 km, 82.5° (Epoch: 02 December)

Event Time Altitude Azimuth Distance (km) Brightness Sun altitude
Rises 23:31:11 0° 358° (N) 2,619 5.8 -17.6°
Reaches altitude 10° 23:33:22 10° 4° (N) 1,727 4.8 -18.0°
Enters shadow 23:36:36 46° 55° (NE) 691 2.4 -18.6°
